TimeACST,TemperatureF,Dew PointF,Humidity,Sea Level PressureIn,VisibilityMPH,Wind Direction,Wind SpeedMPH,Gust SpeedMPH,PrecipitationIn,Events,Conditions,WindDirDegrees,DateUTC
12:00 AM,48,46,88,30.31,19,East,1.2,,,,Partly Cloudy,100,2013-05-23 14:30:00
12:00 AM,48.2,46.4,93,30.30,-9999.0,East,1.2,-,N/A,,Clear,100,2013-05-23 14:30:00
12:30 AM,48,45,86,30.31,,Calm,Calm,,,,,,2013-05-23 15:00:00
12:30 AM,48.2,44.6,87,30.30,-9999.0,Calm,Calm,-,N/A,,Clear,0,2013-05-23 15:00:00
1:30 AM,44.6,42.8,93,30.30,-9999.0,NE,5.8,-,N/A,,Clear,50,2013-05-23 16:00:00
2:00 AM,44.6,42.8,93,30.30,-9999.0,East,4.6,-,N/A,,Clear,90,2013-05-23 16:30:00
2:43 AM,44.6,42.8,93,30.30,-9999.0,ESE,4.6,-,N/A,,Clear,110,2013-05-23 17:13:00
3:00 AM,44,42,91,30.30,19,NE,5.8,,,,Partly Cloudy,50,2013-05-23 17:30:00
3:00 AM,42.8,42.8,100,30.30,-9999.0,NE,5.8,-,N/A,,Clear,50,2013-05-23 17:30:00
3:30 AM,44,42,89,30.30,,NNE,4.6,,,,,30,2013-05-23 18:00:00
3:30 AM,44.6,42.8,93,30.30,-9999.0,NNE,4.6,-,N/A,,Clear,30,2013-05-23 18:00:00
4:00 AM,42.8,41.0,93,30.30,-9999.0,NW,4.6,-,N/A,,Clear,310,2013-05-23 18:30:00
4:30 AM,42.8,41.0,93,30.30,-9999.0,North,4.6,-,N/A,,Clear,360,2013-05-23 19:00:00
5:00 AM,42.8,41.0,93,30.30,-9999.0,ENE,5.8,-,N/A,,Clear,70,2013-05-23 19:30:00
5:30 AM,42.8,41.0,93,30.30,-9999.0,East,5.8,-,N/A,,Clear,80,2013-05-23 20:00:00
6:00 AM,44,42,91,30.34,19,East,4.6,,,,Partly Cloudy,80,2013-05-23 20:30:00
6:00 AM,44.6,42.8,93,30.33,6.2,ENE,4.6,-,N/A,,Partly Cloudy,70,2013-05-23 20:30:00
6:30 AM,45,44,92,30.34,,NE,6.9,,,,,50,2013-05-23 21:00:00
6:30 AM,44.6,42.8,93,30.33,6.2,NE,6.9,-,N/A,,Mostly Cloudy,50,2013-05-23 21:00:00
7:00 AM,46.4,44.6,93,30.33,6.2,ENE,4.6,-,N/A,,Scattered Clouds,60,2013-05-23 21:30:00
7:30 AM,46.4,44.6,93,30.33,6.2,NE,6.9,-,N/A,,Partly Cloudy,40,2013-05-23 22:00:00
8:00 AM,48.2,46.4,93,30.33,6.2,North,4.6,-,N/A,,Partly Cloudy,10,2013-05-23 22:30:00
8:30 AM,51.8,48.2,88,30.36,6.2,NE,3.5,-,N/A,,Partly Cloudy,40,2013-05-23 23:00:00
9:00 AM,54,48,74,30.38,19,ENE,3.5,,,,Partly Cloudy,60,2013-05-23 23:30:00
9:00 AM,53.6,48.2,82,30.36,-9999.0,ENE,3.5,-,N/A,,Clear,60,2013-05-23 23:30:00
9:30 AM,56,49,72,30.38,,Calm,Calm,,,,,,2013-05-24 00:00:00
9:30 AM,55.4,50.0,82,30.36,-9999.0,Calm,Calm,-,N/A,,Clear,0,2013-05-24 00:00:00
10:00 AM,57.2,50.0,77,30.36,-9999.0,North,5.8,-,N/A,,Clear,360,2013-05-24 00:30:00
10:30 AM,59.0,48.2,67,30.39,-9999.0,North,4.6,-,N/A,,Clear,10,2013-05-24 01:00:00
11:00 AM,57.2,51.8,82,30.36,-9999.0,NW,5.8,-,N/A,,Clear,320,2013-05-24 01:30:00
11:30 AM,57.2,50.0,77,30.36,-9999.0,NW,9.2,-,N/A,,Clear,320,2013-05-24 02:00:00
12:00 PM,58,50,66,30.37,16,NNW,6.9,,,,Partly Cloudy,340,2013-05-24 02:30:00
12:00 PM,57.2,50.0,77,30.36,-9999.0,NNW,6.9,-,N/A,,Clear,330,2013-05-24 02:30:00
12:30 PM,60,51,63,30.36,,North,5.8,,,,,350,2013-05-24 03:00:00
12:30 PM,60.8,50.0,68,30.36,6.2,North,5.8,-,N/A,,Mostly Cloudy,350,2013-05-24 03:00:00
1:00 PM,59.0,51.8,77,30.33,6.2,North,5.8,-,N/A,,Mostly Cloudy,360,2013-05-24 03:30:00
1:26 PM,60.8,53.6,77,30.33,6.2,WNW,5.8,-,N/A,,Mostly Cloudy,300,2013-05-24 03:56:00
1:30 PM,60.8,53.6,77,30.33,6.2,NW,4.6,-,N/A,,Mostly Cloudy,320,2013-05-24 04:00:00
1:37 PM,60.8,53.6,77,30.33,-9999.0,NW,4.6,-,N/A,,Unknown,310,2013-05-24 04:07:00
2:00 PM,60.8,53.6,77,30.33,6.2,SSW,4.6,-,N/A,,Mostly Cloudy,210,2013-05-24 04:30:00
2:30 PM,60.8,53.6,77,30.33,6.2,SW,8.1,-,N/A,,Mostly Cloudy,230,2013-05-24 05:00:00
3:00 PM,61,52,65,30.35,16,South,9.2,,,,Mostly Cloudy,190,2013-05-24 05:30:00
3:00 PM,60.8,51.8,72,30.33,6.2,South,9.2,-,N/A,,Mostly Cloudy,190,2013-05-24 05:30:00
3:30 PM,60,53,71,30.35,,SW,9.2,,,,,220,2013-05-24 06:00:00
3:30 PM,60.8,53.6,77,30.33,6.2,SW,9.2,-,N/A,,Mostly Cloudy,220,2013-05-24 06:00:00
4:00 PM,59.0,53.6,82,30.33,6.2,SSW,10.4,-,N/A,,Mostly Cloudy,200,2013-05-24 06:30:00
4:30 PM,59.0,51.8,77,30.33,6.2,South,6.9,-,N/A,,Mostly Cloudy,180,2013-05-24 07:00:00
5:00 PM,59.0,51.8,77,30.36,6.2,South,5.8,-,N/A,,Mostly Cloudy,190,2013-05-24 07:30:00
5:30 PM,59.0,50.0,72,30.36,6.2,SW,8.1,-,N/A,,Mostly Cloudy,220,2013-05-24 08:00:00
6:00 PM,59,50,63,30.37,19,SSE,6.9,,,,Partly Cloudy,160,2013-05-24 08:30:00
6:00 PM,59.0,50.0,72,30.36,6.2,SSE,6.9,-,N/A,,Mostly Cloudy,160,2013-05-24 08:30:00
6:30 PM,59,51,69,30.37,,ESE,5.8,,,,,120,2013-05-24 09:00:00
6:30 PM,59.0,51.8,77,30.36,6.2,ESE,5.8,-,N/A,,Mostly Cloudy,120,2013-05-24 09:00:00
7:00 PM,59.0,51.8,77,30.36,6.2,East,4.6,-,N/A,,Mostly Cloudy,100,2013-05-24 09:30:00
7:30 PM,57.2,51.8,82,30.36,6.2,East,4.6,-,N/A,,Mostly Cloudy,90,2013-05-24 10:00:00
8:00 PM,57.2,51.8,82,30.36,6.2,East,3.5,-,N/A,,Mostly Cloudy,80,2013-05-24 10:30:00
8:30 PM,57.2,51.8,82,30.36,6.2,Calm,Calm,-,N/A,,Mostly Cloudy,0,2013-05-24 11:00:00
9:00 PM,57,52,79,30.38,19,Calm,Calm,,,,Partly Cloudy,,2013-05-24 11:30:00
9:00 PM,57.2,51.8,82,30.36,6.2,Calm,Calm,-,N/A,,Mostly Cloudy,0,2013-05-24 11:30:00
9:30 PM,57,49,68,30.38,,SSE,5.8,,,,,150,2013-05-24 12:00:00
9:30 PM,57.2,50.0,77,30.36,6.2,SSE,5.8,-,N/A,,Mostly Cloudy,150,2013-05-24 12:00:00
10:00 PM,57.2,48.2,72,30.36,6.2,South,6.9,-,N/A,,Mostly Cloudy,170,2013-05-24 12:30:00
10:30 PM,57.2,48.2,72,30.36,6.2,SSE,6.9,-,N/A,,Mostly Cloudy,150,2013-05-24 13:00:00
11:00 PM,57.2,46.4,67,30.39,6.2,South,6.9,-,N/A,,Mostly Cloudy,170,2013-05-24 13:30:00
11:30 PM,57.2,48.2,72,30.39,6.2,SSE,6.9,-,N/A,,Mostly Cloudy,160,2013-05-24 14:00:00